Tracking 23940 objects as of 1-Dec-2021
HD Live streaming from Space Station
objects crossing your sky now

PEGASUS DEB

Track PEGASUS DEB now!
10-day predictions


NORAD ID: 24129
Int'l Code: 1994-029GC
Perigee: 549.6 km
Apogee: 1,417.9 km
Inclination: 81.5 °
Period: 104.6 minutes
Semi major axis: 7354 km
RCS: 0.0937 m2 (small)
Launch date: May 19, 1994
Source: United States (US)
Launch site: AIR FORCE WESTERN TEST RANGE (AFWTR)

Note: This is SATELLITE DEBRIS
aabbcc
Your satellite tracking list
Your tracking list is empty




NASA's NSSDC Master Catalog

Two Line Element Set (TLE):
1 24129U 94029GC  21335.19436404  .00000538  00000-0  14584-3 0  9998
2 24129  81.4823 231.5437 0590333 278.8757 241.1384 13.76424271270692
Source of the keplerian elements: AFSPC